Time,TemperatureF,DewpointF,PressureIn,WindDirection,WindDirectionDegrees,WindSpeedMPH,WindSpeedGustMPH,Humidity,HourlyPrecipIn,Conditions,Clouds,dailyrainin,SoftwareType,DateUTC
2013-01-19 00:00:00,28.6,17.6,30.18,SW,225,0.0,0.0,63,0.00,,,0.00,WUHU21623XXSP,2013-01-19 05:00:00,
2013-01-19 00:01:00,28.6,17.6,30.17,ESE,112,0.0,0.0,63,0.00,,,0.00,WUHU21623XXSP,2013-01-19 05:01:00,
2013-01-19 00:02:00,28.6,17.6,30.17,ESE,112,0.0,0.0,63,0.00,,,0.00,WUHU21623XXSP,2013-01-19 05:02:00,
2013-01-19 00:07:00,28.6,17.6,30.17,NE,45,0.9,0.9,63,0.00,,,0.00,WUHU21623XXSP,2013-01-19 05:07:00,
2013-01-19 00:12:00,28.6,17.6,30.17,NE,45,1.3,1.3,63,0.00,,,0.00,WUHU21623XXSP,2013-01-19 05:12:00,
2013-01-19 00:17:00,28.6,17.6,30.16,SE,135,0.9,1.3,63,0.00,,,0.00,WUHU21623XXSP,2013-01-19 05:17:00,
2013-01-19 00:22:00,28.6,17.9,30.17,ENE,67,0.0,0.9,64,0.00,,,0.00,WUHU21623XXSP,2013-01-19 05:22:00,
2013-01-19 00:27:00,28.8,17.6,30.16,SSE,157,1.3,1.3,63,0.00,,,0.00,WUHU21623XXSP,2013-01-19 05:27:00,
2013-01-19 00:32:00,28.8,17.6,30.16,South,180,0.0,1.3,64,0.00,,,0.00,WUHU21623XXSP,2013-01-19 05:32:00,
2013-01-19 00:37:00,28.8,18.1,30.16,SE,135,0.0,0.0,64,0.00,,,0.00,WUHU21623XXSP,2013-01-19 05:37:00,
2013-01-19 00:42:00,28.8,18.1,30.16,South,180,0.7,0.7,64,0.00,,,0.00,WUHU21623XXSP,2013-01-19 05:42:00,
2013-01-19 00:47:00,28.6,17.9,30.16,ESE,112,0.0,0.7,64,0.00,,,0.00,WUHU21623XXSP,2013-01-19 05:47:00,
2013-01-19 00:52:00,28.6,17.9,30.15,ENE,67,0.0,0.0,64,0.00,,,0.00,WUHU21623XXSP,2013-01-19 05:52:00,
2013-01-19 00:57:00,28.6,17.9,30.16,ENE,67,0.0,0.0,64,0.00,,,0.00,WUHU21623XXSP,2013-01-19 05:57:00,
2013-01-19 01:02:00,28.6,17.9,30.15,ENE,67,0.0,0.0,64,0.00,,,0.00,WUHU21623XXSP,2013-01-19 06:02:00,
2013-01-19 01:07:00,28.8,18.1,30.16,SSE,157,0.0,0.0,64,0.00,,,0.00,WUHU21623XXSP,2013-01-19 06:07:00,
2013-01-19 01:12:00,28.9,18.3,30.15,ENE,67,1.1,1.1,64,0.00,,,0.00,WUHU21623XXSP,2013-01-19 06:12:00,
2013-01-19 01:17:00,28.9,18.3,30.15,ESE,112,0.0,1.1,64,0.00,,,0.00,WUHU21623XXSP,2013-01-19 06:17:00,
2013-01-19 01:22:00,29.1,18.4,30.14,ESE,112,2.0,2.0,64,0.00,,,0.00,WUHU21623XXSP,2013-01-19 06:22:00,
2013-01-19 01:27:00,29.1,18.1,30.15,East,90,0.0,2.0,63,0.00,,,0.00,WUHU21623XXSP,2013-01-19 06:27:00,
2013-01-19 01:32:00,29.3,18.1,30.14,East,90,0.0,2.0,63,0.00,,,0.00,WUHU21623XXSP,2013-01-19 06:32:00,
2013-01-19 01:37:00,29.5,18.4,30.15,South,180,1.3,6.0,63,0.00,,,0.00,WUHU21623XXSP,2013-01-19 06:37:00,
2013-01-19 01:42:00,29.5,18.4,30.14,ENE,67,0.0,6.0,63,0.00,,,0.00,WUHU21623XXSP,2013-01-19 06:42:00,
2013-01-19 01:47:00,29.8,18.7,30.15,SW,225,2.2,2.2,63,0.00,,,0.00,WUHU21623XXSP,2013-01-19 06:47:00,
2013-01-19 01:52:00,29.8,18.7,30.15,ESE,112,1.6,2.2,63,0.00,,,0.00,WUHU21623XXSP,2013-01-19 06:52:00,
2013-01-19 01:57:00,30.2,18.7,30.14,NE,45,0.0,1.6,62,0.00,,,0.00,WUHU21623XXSP,2013-01-19 06:57:00,
2013-01-19 02:02:00,30.4,18.9,30.16,ENE,67,1.6,1.6,62,0.00,,,0.00,WUHU21623XXSP,2013-01-19 07:02:00,
2013-01-19 02:07:00,30.7,18.9,30.16,East,90,0.0,1.6,61,0.00,,,0.00,WUHU21623XXSP,2013-01-19 07:07:00,
2013-01-19 02:12:00,30.9,19.0,30.15,ENE,67,0.0,1.1,61,0.00,,,0.00,WUHU21623XXSP,2013-01-19 07:12:00,
2013-01-19 02:17:00,30.9,19.0,30.15,ESE,112,0.0,1.1,61,0.00,,,0.00,WUHU21623XXSP,2013-01-19 07:17:00,
2013-01-19 02:22:00,31.1,19.2,30.14,South,180,0.0,0.0,61,0.00,,,0.00,WUHU21623XXSP,2013-01-19 07:22:00,
2013-01-19 02:27:00,31.3,19.0,30.15,NE,45,0.0,1.3,60,0.00,,,0.00,WUHU21623XXSP,2013-01-19 07:27:00,
2013-01-19 02:32:00,31.3,19.0,30.15,NE,45,0.0,1.3,60,0.00,,,0.00,WUHU21623XXSP,2013-01-19 07:32:00,
2013-01-19 02:37:00,31.6,19.0,30.14,ESE,112,0.0,1.3,59,0.00,,,0.00,WUHU21623XXSP,2013-01-19 07:37:00,
2013-01-19 02:42:00,31.8,19.1,30.15,SSE,157,0.0,2.0,59,0.00,,,0.00,WUHU21623XXSP,2013-01-19 07:42:00,
2013-01-19 02:47:00,31.8,19.1,30.14,North,0,0.0,2.0,59,0.00,,,0.00,WUHU21623XXSP,2013-01-19 07:47:00,
2013-01-19 02:52:00,32.0,18.9,30.15,South,180,0.0,2.7,58,0.00,,,0.00,WUHU21623XXSP,2013-01-19 07:52:00,
2013-01-19 02:57:00,32.0,18.9,30.15,South,180,0.0,2.7,58,0.00,,,0.00,WUHU21623XXSP,2013-01-19 07:57:00,
2013-01-19 03:02:00,32.2,19.1,30.14,SSW,202,0.0,0.0,58,0.00,,,0.00,WUHU21623XXSP,2013-01-19 08:02:00,
2013-01-19 03:07:00,32.2,18.6,30.14,SE,135,1.6,2.5,57,0.00,,,0.00,WUHU21623XXSP,2013-01-19 08:07:00,
2013-01-19 03:12:00,32.2,18.6,30.14,NW,315,2.5,2.5,57,0.00,,,0.00,WUHU21623XXSP,2013-01-19 08:12:00,
2013-01-19 03:17:00,32.2,18.6,30.14,ENE,67,1.3,2.5,57,0.00,,,0.00,WUHU21623XXSP,2013-01-19 08:17:00,
2013-01-19 03:22:00,32.2,18.2,30.13,East,90,3.1,3.1,56,0.00,,,0.00,WUHU21623XXSP,2013-01-19 08:22:00,
2013-01-19 03:27:00,32.4,18.4,30.13,East,90,0.0,3.1,56,0.00,,,0.00,WUHU21623XXSP,2013-01-19 08:27:00,
2013-01-19 03:32:00,32.4,18.4,30.13,SSE,157,0.0,1.1,56,0.00,,,0.00,WUHU21623XXSP,2013-01-19 08:32:00,
2013-01-19 03:37:00,32.4,18.4,30.13,ENE,67,0.0,0.0,56,0.00,,,0.00,WUHU21623XXSP,2013-01-19 08:37:00,
2013-01-19 03:42:00,32.2,17.8,30.13,ENE,67,0.9,2.2,55,0.00,,,0.00,WUHU21623XXSP,2013-01-19 08:42:00,
2013-01-19 03:47:00,32.2,17.8,30.13,ENE,67,2.0,2.2,55,0.00,,,0.00,WUHU21623XXSP,2013-01-19 08:47:00,
2013-01-19 03:52:00,32.2,17.8,30.13,ENE,67,0.0,2.0,55,0.00,,,0.00,WUHU21623XXSP,2013-01-19 08:52:00,
2013-01-19 03:57:00,32.0,17.8,30.12,ESE,112,0.0,0.0,55,0.00,,,0.00,WUHU21623XXSP,2013-01-19 08:57:00,
2013-01-19 04:02:00,31.8,17.4,30.12,SSE,157,1.6,1.6,55,0.00,,,0.00,WUHU21623XXSP,2013-01-19 09:02:00,
2013-01-19 04:07:00,31.8,17.4,30.12,NE,45,1.6,1.6,55,0.00,,,0.00,WUHU21623XXSP,2013-01-19 09:07:00,
2013-01-19 04:12:00,31.8,17.4,30.12,ENE,67,0.0,1.6,55,0.00,,,0.00,WUHU21623XXSP,2013-01-19 09:12:00,
2013-01-19 04:17:00,31.6,17.3,30.12,ENE,67,2.2,2.2,55,0.00,,,0.00,WUHU21623XXSP,2013-01-19 09:17:00,
2013-01-19 04:22:00,31.6,17.3,30.11,ESE,112,0.0,2.2,55,0.00,,,0.00,WUHU21623XXSP,2013-01-19 09:22:00,
2013-01-19 04:27:00,31.6,17.3,30.11,ESE,112,0.0,0.0,55,0.00,,,0.00,WUHU21623XXSP,2013-01-19 09:27:00,
2013-01-19 04:32:00,31.8,17.4,30.11,ENE,67,2.5,3.6,55,0.00,,,0.00,WUHU21623XXSP,2013-01-19 09:32:00,
2013-01-19 04:37:00,31.8,17.4,30.11,East,90,0.0,3.6,55,0.00,,,0.00,WUHU21623XXSP,2013-01-19 09:37:00,
2013-01-19 04:42:00,31.6,17.3,30.11,SSE,157,2.2,2.2,55,0.00,,,0.00,WUHU21623XXSP,2013-01-19 09:42:00,
2013-01-19 04:47:00,31.8,17.4,30.11,SE,135,0.0,2.2,55,0.00,,,0.00,WUHU21623XXSP,2013-01-19 09:47:00,
2013-01-19 04:52:00,31.8,17.4,30.11,ESE,112,2.7,2.7,55,0.00,,,0.00,WUHU21623XXSP,2013-01-19 09:52:00,
2013-01-19 04:57:00,32.0,17.6,30.11,ENE,67,3.4,3.4,55,0.00,,,0.00,WUHU21623XXSP,2013-01-19 09:57:00,
2013-01-19 05:02:00,32.0,17.6,30.11,ENE,67,0.0,3.4,55,0.00,,,0.00,WUHU21623XXSP,2013-01-19 10:02:00,
2013-01-19 05:07:00,32.2,17.8,30.11,ENE,67,2.0,2.0,55,0.00,,,0.00,WUHU21623XXSP,2013-01-19 10:07:00,
2013-01-19 05:12:00,32.2,17.8,30.11,SE,135,0.0,2.0,55,0.00,,,0.00,WUHU21623XXSP,2013-01-19 10:12:00,
2013-01-19 05:17:00,32.2,18.2,30.10,NE,45,0.0,2.0,56,0.00,,,0.00,WUHU21623XXSP,2013-01-19 10:17:00,
2013-01-19 05:22:00,32.4,18.4,30.10,East,90,0.0,1.6,56,0.00,,,0.00,WUHU21623XXSP,2013-01-19 10:22:00,
2013-01-19 05:27:00,32.4,18.4,30.11,WSW,247,1.3,1.6,56,0.00,,,0.00,WUHU21623XXSP,2013-01-19 10:27:00,
2013-01-19 05:32:00,32.5,18.5,30.11,NNE,22,1.1,1.6,56,0.00,,,0.00,WUHU21623XXSP,2013-01-19 10:32:00,
2013-01-19 05:37:00,32.5,18.5,30.11,ENE,67,1.1,1.1,56,0.00,,,0.00,WUHU21623XXSP,2013-01-19 10:37:00,
2013-01-19 05:42:00,32.5,18.5,30.10,ENE,67,1.3,2.0,56,0.00,,,0.00,WUHU21623XXSP,2013-01-19 10:42:00,
2013-01-19 05:47:00,32.5,18.5,30.11,ENE,67,0.0,1.3,56,0.00,,,0.00,WUHU21623XXSP,2013-01-19 10:47:00,
2013-01-19 05:53:00,32.4,18.4,30.11,ENE,67,0.9,1.3,56,0.00,,,0.00,WUHU21623XXSP,2013-01-19 10:53:00,
2013-01-19 05:58:00,32.4,18.4,30.10,ENE,67,0.9,1.3,56,0.00,,,0.00,WUHU21623XXSP,2013-01-19 10:58:00,
2013-01-19 06:03:00,32.4,18.4,30.10,ENE,67,0.0,0.9,56,0.00,,,0.00,WUHU21623XXSP,2013-01-19 11:03:00,
2013-01-19 06:08:00,32.2,18.2,30.10,ENE,67,1.3,1.3,56,0.00,,,0.00,WUHU21623XXSP,2013-01-19 11:08:00,
2013-01-19 06:13:00,32.2,18.2,30.10,NNE,22,0.9,1.3,56,0.00,,,0.00,WUHU21623XXSP,2013-01-19 11:13:00,
2013-01-19 06:14:00,32.2,18.2,30.10,NE,45,1.1,1.3,56,0.00,,,0.00,WUHU21623XXSP,2013-01-19 11:14:00,
2013-01-19 06:16:00,32.2,18.6,30.10,East,90,0.9,1.3,57,0.00,,,0.00,WUHU21623XXSP,2013-01-19 11:16:00,
2013-01-19 06:19:00,32.2,18.6,30.10,ESE,112,0.0,1.1,57,0.00,,,0.00,WUHU21623XXSP,2013-01-19 11:19:00,
2013-01-19 06:22:00,32.2,18.6,30.10,ENE,67,0.0,1.1,57,0.00,,,0.00,WUHU21623XXSP,2013-01-19 11:22:00,
2013-01-19 06:24:00,32.2,18.6,30.10,ENE,67,1.3,1.3,57,0.00,,,0.00,WUHU21623XXSP,2013-01-19 11:24:00,
2013-01-19 06:27:00,32.2,18.6,30.10,ESE,112,0.0,1.3,57,0.00,,,0.00,WUHU21623XXSP,2013-01-19 11:27:00,
2013-01-19 06:29:00,32.0,18.5,30.10,NE,45,0.0,1.3,57,0.00,,,0.00,WUHU21623XXSP,2013-01-19 11:29:00,
2013-01-19 06:31:00,32.0,18.5,30.10,East,90,0.0,1.3,57,0.00,,,0.00,WUHU21623XXSP,2013-01-19 11:31:00,
2013-01-19 06:33:00,32.2,18.6,30.10,ENE,67,0.0,0.0,57,0.00,,,0.00,WUHU21623XXSP,2013-01-19 11:33:00,
2013-01-19 06:35:00,32.2,18.6,30.10,East,90,1.3,1.3,57,0.00,,,0.00,WUHU21623XXSP,2013-01-19 11:35:00,
2013-01-19 06:37:00,32.2,18.6,30.10,East,90,1.3,1.3,57,0.00,,,0.00,WUHU21623XXSP,2013-01-19 11:37:00,
2013-01-19 06:42:00,32.2,18.6,30.11,SSE,157,0.0,1.3,57,0.00,,,0.00,WUHU21623XXSP,2013-01-19 11:42:00,
2013-01-19 06:46:00,32.2,18.6,30.10,ENE,67,4.0,4.0,57,0.00,,,0.00,WUHU21623XXSP,2013-01-19 11:46:00,
2013-01-19 06:48:00,32.2,19.1,30.10,ENE,67,0.9,4.0,58,0.00,,,0.00,WUHU21623XXSP,2013-01-19 11:48:00,
2013-01-19 06:50:00,32.2,19.1,30.10,NE,45,0.0,4.0,58,0.00,,,0.00,WUHU21623XXSP,2013-01-19 11:50:00,
2013-01-19 06:52:00,32.2,19.1,30.10,ENE,67,0.9,4.0,58,0.00,,,0.00,WUHU21623XXSP,2013-01-19 11:52:00,
2013-01-19 06:54:00,32.2,19.1,30.10,SE,135,0.0,4.0,58,0.00,,,0.00,WUHU21623XXSP,2013-01-19 11:54:00,
2013-01-19 06:57:00,32.2,19.1,30.10,ENE,67,1.1,1.1,58,0.00,,,0.00,WUHU21623XXSP,2013-01-19 11:57:00,
2013-01-19 06:59:00,32.2,19.1,30.10,East,90,2.2,2.2,58,0.00,,,0.00,WUHU21623XXSP,2013-01-19 11:59:00,
2013-01-19 07:01:00,32.2,19.1,30.10,NE,45,0.0,2.2,58,0.00,,,0.00,WUHU21623XXSP,2013-01-19 12:01:00,
2013-01-19 07:03:00,32.4,19.2,30.09,SE,135,0.0,2.2,58,0.00,,,0.00,WUHU21623XXSP,2013-01-19 12:03:00,
2013-01-19 07:07:00,32.4,19.2,30.09,ESE,112,0.0,2.2,58,0.00,,,0.00,WUHU21623XXSP,2013-01-19 12:07:00,
2013-01-19 07:09:00,32.5,19.4,30.09,NNW,337,0.0,0.0,58,0.00,,,0.00,WUHU21623XXSP,2013-01-19 12:09:00,
2013-01-19 07:12:00,32.5,19.4,30.09,SE,135,0.0,0.0,58,0.00,,,0.00,WUHU21623XXSP,2013-01-19 12:12:00,
2013-01-19 07:14:00,32.7,19.5,30.09,NNW,337,0.0,0.0,58,0.00,,,0.00,WUHU21623XXSP,2013-01-19 12:14:00,
2013-01-19 07:16:00,32.7,19.5,30.09,East,90,1.6,1.6,58,0.00,,,0.00,WUHU21623XXSP,2013-01-19 12:16:00,
2013-01-19 07:18:00,33.1,19.4,30.09,SE,135,1.3,1.6,57,0.00,,,0.00,WUHU21623XXSP,2013-01-19 12:18:00,
2013-01-19 07:20:00,33.3,19.6,30.09,NNW,337,0.0,1.6,57,0.00,,,0.00,WUHU21623XXSP,2013-01-19 12:20:00,
2013-01-19 07:22:00,33.4,19.8,30.09,NW,315,2.7,2.7,57,0.00,,,0.00,WUHU21623XXSP,2013-01-19 12:22:00,
2013-01-19 07:24:00,33.4,19.8,30.09,ESE,112,0.0,2.7,57,0.00,,,0.00,WUHU21623XXSP,2013-01-19 12:24:00,
2013-01-19 07:29:00,33.8,20.1,30.09,ENE,67,0.0,2.7,57,0.00,,,0.00,WUHU21623XXSP,2013-01-19 12:29:00,
2013-01-19 07:31:00,34.0,20.3,30.09,ENE,67,4.7,4.7,57,0.00,,,0.00,WUHU21623XXSP,2013-01-19 12:31:00,
2013-01-19 07:33:00,34.2,20.0,30.09,NNW,337,0.7,4.7,56,0.00,,,0.00,WUHU21623XXSP,2013-01-19 12:33:00,
2013-01-19 07:37:00,34.3,20.2,30.09,NNE,22,3.1,4.7,56,0.00,,,0.00,WUHU21623XXSP,2013-01-19 12:37:00,
2013-01-19 07:47:00,35.2,21.1,30.09,WSW,247,1.3,7.8,56,0.00,,,0.00,WUHU21623XXSP,2013-01-19 12:47:00,
2013-01-19 07:48:00,35.2,21.1,30.09,WSW,247,1.3,7.8,56,0.00,,,0.00,WUHU21623XXSP,2013-01-19 12:48:00,
2013-01-19 07:53:00,35.4,20.8,30.09,ENE,67,2.2,7.8,55,0.00,,,0.00,WUHU21623XXSP,2013-01-19 12:53:00,
2013-01-19 07:58:00,36.0,21.3,30.09,ENE,67,2.0,2.9,55,0.00,,,0.00,WUHU21623XXSP,2013-01-19 12:58:00,
2013-01-19 08:03:00,36.0,21.3,30.09,NNE,22,1.3,2.2,55,0.00,,,0.00,WUHU21623XXSP,2013-01-19 13:03:00,
2013-01-19 08:08:00,36.1,21.5,30.09,NNE,22,2.5,2.5,55,0.00,,,0.00,WUHU21623XXSP,2013-01-19 13:08:00,
2013-01-19 08:13:00,36.0,21.3,30.10,SW,225,1.1,2.5,55,0.00,,,0.00,WUHU21623XXSP,2013-01-19 13:13:00,
2013-01-19 08:18:00,36.0,21.3,30.09,NNE,22,0.0,1.1,55,0.00,,,0.00,WUHU21623XXSP,2013-01-19 13:18:00,
2013-01-19 08:23:00,36.0,21.3,30.10,ENE,67,1.8,1.8,55,0.00,,,0.00,WUHU21623XXSP,2013-01-19 13:23:00,
2013-01-19 08:28:00,36.0,21.3,30.09,South,180,1.1,1.8,55,0.00,,,0.00,WUHU21623XXSP,2013-01-19 13:28:00,
2013-01-19 08:33:00,36.3,21.2,30.09,ENE,67,1.1,1.3,54,0.00,,,0.00,WUHU21623XXSP,2013-01-19 13:33:00,
2013-01-19 08:38:00,36.3,21.2,30.09,ENE,67,0.0,3.8,54,0.00,,,0.00,WUHU21623XXSP,2013-01-19 13:38:00,
2013-01-19 08:43:00,36.7,21.6,30.09,SE,135,2.0,3.8,54,0.00,,,0.00,WUHU21623XXSP,2013-01-19 13:43:00,
2013-01-19 08:48:00,36.9,21.1,30.09,ENE,67,4.0,4.0,53,0.00,,,0.00,WUHU21623XXSP,2013-01-19 13:48:00,
2013-01-19 08:53:00,37.0,21.5,30.09,ESE,112,0.0,5.8,53,0.00,,,0.00,WUHU21623XXSP,2013-01-19 13:53:00,
2013-01-19 08:58:00,37.2,21.6,30.09,SW,225,3.8,5.8,53,0.00,,,0.00,WUHU21623XXSP,2013-01-19 13:58:00,
2013-01-19 09:03:00,37.4,21.8,30.09,ENE,67,2.2,3.8,53,0.00,,,0.00,WUHU21623XXSP,2013-01-19 14:03:00,
2013-01-19 09:08:00,37.6,21.3,30.10,North,0,0.0,2.2,52,0.00,,,0.00,WUHU21623XXSP,2013-01-19 14:08:00,
2013-01-19 09:13:00,37.8,21.5,30.10,WSW,247,2.2,2.2,52,0.00,,,0.00,WUHU21623XXSP,2013-01-19 14:13:00,
2013-01-19 09:18:00,37.8,21.7,30.10,NNW,337,6.9,6.9,52,0.00,,,0.00,WUHU21623XXSP,2013-01-19 14:18:00,
2013-01-19 09:23:00,37.9,21.8,30.10,WNW,292,4.5,6.9,52,0.00,,,0.00,WUHU21623XXSP,2013-01-19 14:23:00,
2013-01-19 09:28:00,38.3,22.2,30.10,NNW,337,2.2,4.5,52,0.00,,,0.00,WUHU21623XXSP,2013-01-19 14:28:00,
2013-01-19 09:33:00,38.3,22.2,30.10,West,270,4.5,4.5,52,0.00,,,0.00,WUHU21623XXSP,2013-01-19 14:33:00,
2013-01-19 09:38:00,38.8,22.2,30.10,NE,45,2.0,4.5,51,0.00,,,0.00,WUHU21623XXSP,2013-01-19 14:38:00,
2013-01-19 09:43:00,38.8,22.2,30.10,NNW,337,4.7,6.7,51,0.00,,,0.00,WUHU21623XXSP,2013-01-19 14:43:00,
2013-01-19 09:48:00,38.8,22.2,30.10,NNE,22,1.3,6.7,51,0.00,,,0.00,WUHU21623XXSP,2013-01-19 14:48:00,
2013-01-19 09:53:00,39.0,22.4,30.10,West,270,3.1,5.4,51,0.00,,,0.00,WUHU21623XXSP,2013-01-19 14:53:00,
2013-01-19 09:58:00,39.4,22.7,30.10,NW,315,5.4,5.4,51,0.00,,,0.00,WUHU21623XXSP,2013-01-19 14:58:00,
2013-01-19 10:03:00,39.4,22.7,30.10,WSW,247,8.1,8.1,51,0.00,,,0.00,WUHU21623XXSP,2013-01-19 15:03:00,
2013-01-19 10:08:00,39.4,22.7,30.10,NW,315,2.2,8.1,51,0.00,,,0.00,WUHU21623XXSP,2013-01-19 15:08:00,
2013-01-19 10:13:00,39.7,23.0,30.09,WNW,292,10.1,10.1,51,0.00,,,0.00,WUHU21623XXSP,2013-01-19 15:13:00,
2013-01-19 10:18:00,40.1,22.9,30.09,SW,225,4.0,10.1,50,0.00,,,0.00,WUHU21623XXSP,2013-01-19 15:18:00,
2013-01-19 10:23:00,40.3,23.1,30.09,NW,315,0.0,8.1,50,0.00,,,0.00,WUHU21623XXSP,2013-01-19 15:23:00,
2013-01-19 10:28:00,40.6,23.4,30.09,WNW,292,3.6,8.1,50,0.00,,,0.00,WUHU21623XXSP,2013-01-19 15:28:00,
2013-01-19 10:33:00,40.8,23.6,30.09,WNW,292,0.0,3.6,50,0.00,,,0.00,WUHU21623XXSP,2013-01-19 15:33:00,
2013-01-19 10:38:00,41.2,23.4,30.09,NW,315,2.0,6.0,49,0.00,,,0.00,WUHU21623XXSP,2013-01-19 15:38:00,
2013-01-19 10:43:00,41.4,23.5,30.09,SW,225,5.4,6.0,49,0.00,,,0.00,WUHU21623XXSP,2013-01-19 15:43:00,
2013-01-19 10:48:00,41.7,23.4,30.09,East,90,3.1,5.4,48,0.00,,,0.00,WUHU21623XXSP,2013-01-19 15:48:00,
2013-01-19 10:53:00,42.1,23.7,30.08,NE,45,6.0,6.0,48,0.00,,,0.00,WUHU21623XXSP,2013-01-19 15:53:00,
2013-01-19 10:58:00,42.4,24.1,30.08,NW,315,3.8,6.0,48,0.00,,,0.00,WUHU21623XXSP,2013-01-19 15:58:00,
2013-01-19 11:03:00,42.6,24.3,30.08,NW,315,0.0,3.8,48,0.00,,,0.00,WUHU21623XXSP,2013-01-19 16:03:00,
2013-01-19 11:08:00,43.0,24.6,30.08,South,180,4.3,4.3,48,0.00,,,0.00,WUHU21623XXSP,2013-01-19 16:08:00,
2013-01-19 11:13:00,43.2,24.2,30.07,NW,315,0.0,12.3,47,0.00,,,0.00,WUHU21623XXSP,2013-01-19 16:13:00,
2013-01-19 11:18:00,43.3,24.4,30.07,NW,315,1.8,12.3,47,0.00,,,0.00,WUHU21623XXSP,2013-01-19 16:18:00,
2013-01-19 11:23:00,43.3,24.4,30.06,South,180,2.2,3.6,47,0.00,,,0.00,WUHU21623XXSP,2013-01-19 16:23:00,
2013-01-19 11:28:00,43.5,24.5,30.06,WNW,292,1.1,2.9,47,0.00,,,0.00,WUHU21623XXSP,2013-01-19 16:28:00,
2013-01-19 11:33:00,43.7,24.7,30.05,West,270,0.7,2.9,47,0.00,,,0.00,WUHU21623XXSP,2013-01-19 16:33:00,
2013-01-19 11:38:00,43.9,24.9,30.05,SSE,157,2.2,3.8,47,0.00,,,0.00,WUHU21623XXSP,2013-01-19 16:38:00,
2013-01-19 11:43:00,44.1,25.0,30.04,WNW,292,3.4,3.8,47,0.00,,,0.00,WUHU21623XXSP,2013-01-19 16:43:00,
2013-01-19 11:48:00,44.4,24.8,30.04,NE,45,1.3,3.4,46,0.00,,,0.00,WUHU21623XXSP,2013-01-19 16:48:00,
2013-01-19 11:53:00,44.4,24.8,30.04,SW,225,0.0,3.4,46,0.00,,,0.00,WUHU21623XXSP,2013-01-19 16:53:00,
2013-01-19 11:58:00,44.8,25.1,30.03,WSW,247,11.2,11.2,46,0.00,,,0.00,WUHU21623XXSP,2013-01-19 16:58:00,
2013-01-19 12:03:00,45.0,24.8,30.03,North,0,1.3,11.2,45,0.00,,,0.00,WUHU21623XXSP,2013-01-19 17:03:00,
2013-01-19 12:08:00,45.1,24.9,30.02,South,180,3.6,5.8,45,0.00,,,0.00,WUHU21623XXSP,2013-01-19 17:08:00,
2013-01-19 12:13:00,45.3,25.1,30.02,SW,225,17.9,17.9,45,0.00,,,0.00,WUHU21623XXSP,2013-01-19 17:13:00,
2013-01-19 12:18:00,45.3,25.1,30.01,NNW,337,3.1,17.9,45,0.00,,,0.00,WUHU21623XXSP,2013-01-19 17:18:00,
2013-01-19 12:24:00,45.7,25.4,30.01,North,0,5.8,5.8,45,0.00,,,0.00,WUHU21623XXSP,2013-01-19 17:24:00,
2013-01-19 12:29:00,46.0,24.9,30.00,ENE,67,0.0,5.8,44,0.00,,,0.00,WUHU21623XXSP,2013-01-19 17:29:00,
2013-01-19 12:34:00,46.0,25.2,30.00,West,270,6.3,6.3,44,0.00,,,0.00,WUHU21623XXSP,2013-01-19 17:34:00,
2013-01-19 12:39:00,46.2,25.4,30.00,WNW,292,1.8,6.3,44,0.00,,,0.00,WUHU21623XXSP,2013-01-19 17:39:00,
2013-01-19 12:44:00,46.2,24.8,29.99,NNW,337,3.8,3.8,43,0.00,,,0.00,WUHU21623XXSP,2013-01-19 17:44:00,
2013-01-19 12:49:00,46.2,24.8,29.99,North,0,0.0,3.8,43,0.00,,,0.00,WUHU21623XXSP,2013-01-19 17:49:00,
2013-01-19 12:54:00,46.6,25.1,29.99,WSW,247,3.4,3.4,43,0.00,,,0.00,WUHU21623XXSP,2013-01-19 17:54:00,
2013-01-19 12:59:00,46.8,25.3,29.98,NW,315,1.8,3.6,42,0.00,,,0.00,WUHU21623XXSP,2013-01-19 17:59:00,
2013-01-19 13:04:00,46.9,24.8,29.98,West,270,6.5,6.5,43,0.00,,,0.00,WUHU21623XXSP,2013-01-19 18:04:00,
2013-01-19 13:10:00,46.9,24.9,29.98,West,270,6.5,6.5,42,0.00,,,0.00,WUHU21623XXSP,2013-01-19 18:10:00,
2013-01-19 13:15:00,47.1,25.1,29.98,West,270,3.4,7.6,42,0.00,,,0.00,WUHU21623XXSP,2013-01-19 18:15:00,
2013-01-19 13:20:00,47.1,25.1,29.98,SE,135,1.1,7.6,42,0.00,,,0.00,WUHU21623XXSP,2013-01-19 18:20:00,
2013-01-19 13:25:00,47.7,25.0,29.97,NNE,22,0.0,5.1,41,0.00,,,0.00,WUHU21623XXSP,2013-01-19 18:25:00,
2013-01-19 13:30:00,47.7,25.0,29.97,SE,135,1.1,5.1,41,0.00,,,0.00,WUHU21623XXSP,2013-01-19 18:30:00,
2013-01-19 13:35:00,47.8,25.2,29.97,ENE,67,2.2,2.2,41,0.00,,,0.00,WUHU21623XXSP,2013-01-19 18:35:00,
2013-01-19 13:40:00,48.0,25.4,29.96,ESE,112,2.5,2.5,41,0.00,,,0.00,WUHU21623XXSP,2013-01-19 18:40:00,
2013-01-19 13:45:00,48.0,24.8,29.96,North,0,4.0,4.0,40,0.00,,,0.00,WUHU21623XXSP,2013-01-19 18:45:00,
2013-01-19 13:50:00,48.4,25.1,29.95,WSW,247,0.0,4.0,40,0.00,,,0.00,WUHU21623XXSP,2013-01-19 18:50:00,
2013-01-19 13:55:00,48.6,24.6,29.96,NNW,337,1.3,2.5,39,0.00,,,0.00,WUHU21623XXSP,2013-01-19 18:55:00,
2013-01-19 14:01:00,48.7,24.8,29.95,NNW,337,2.9,2.9,39,0.00,,,0.00,WUHU21623XXSP,2013-01-19 19:01:00,
2013-01-19 14:07:00,48.6,25.5,29.95,NNW,337,2.9,2.9,39,0.00,,,0.00,WUHU21623XXSP,2013-01-19 19:07:00,
2013-01-19 14:12:00,48.9,24.9,29.94,ENE,67,1.1,3.8,39,0.00,,,0.00,WUHU21623XXSP,2013-01-19 19:12:00,
2013-01-19 14:17:00,48.9,24.3,29.94,NW,315,2.7,5.6,38,0.00,,,0.00,WUHU21623XXSP,2013-01-19 19:17:00,
2013-01-19 14:22:00,48.9,24.9,29.94,SE,135,0.0,5.6,39,0.00,,,0.00,WUHU21623XXSP,2013-01-19 19:22:00,
2013-01-19 14:27:00,48.7,24.8,29.94,NW,315,0.0,2.2,39,0.00,,,0.00,WUHU21623XXSP,2013-01-19 19:27:00,
2013-01-19 14:32:00,48.6,24.8,29.94,NW,315,0.0,1.6,39,0.00,,,0.00,WUHU21623XXSP,2013-01-19 19:32:00,
2013-01-19 14:38:00,48.0,24.2,29.94,NNW,337,9.6,9.6,39,0.00,,,0.00,WUHU21623XXSP,2013-01-19 19:38:00,
2013-01-19 14:43:00,47.8,23.3,29.93,NNE,22,0.9,9.6,38,0.00,,,0.00,WUHU21623XXSP,2013-01-19 19:43:00,
2013-01-19 14:48:00,47.5,23.7,29.93,East,90,2.0,4.5,39,0.00,,,0.00,WUHU21623XXSP,2013-01-19 19:48:00,
2013-01-19 14:53:00,48.0,23.8,29.93,NW,315,3.8,3.8,39,0.00,,,0.00,WUHU21623XXSP,2013-01-19 19:53:00,
2013-01-19 14:58:00,48.6,24.0,29.93,NW,315,2.0,3.8,38,0.00,,,0.00,WUHU21623XXSP,2013-01-19 19:58:00,
2013-01-19 15:03:00,48.9,24.8,29.92,ENE,67,1.3,3.8,39,0.00,,,0.00,WUHU21623XXSP,2013-01-19 20:03:00,
2013-01-19 15:08:00,49.1,25.1,29.92,NNE,22,1.1,2.0,39,0.00,,,0.00,WUHU21623XXSP,2013-01-19 20:08:00,
2013-01-19 15:14:00,49.3,25.3,29.91,NW,315,2.2,4.3,39,0.00,,,0.00,WUHU21623XXSP,2013-01-19 20:14:00,
2013-01-19 15:19:00,49.3,24.6,29.91,East,90,2.7,4.0,38,0.00,,,0.00,WUHU21623XXSP,2013-01-19 20:19:00,
2013-01-19 15:24:00,49.3,25.3,29.91,NW,315,2.0,4.0,39,0.00,,,0.00,WUHU21623XXSP,2013-01-19 20:24:00,
2013-01-19 15:30:00,49.3,25.3,29.91,West,270,0.0,2.7,39,0.00,,,0.00,WUHU21623XXSP,2013-01-19 20:30:00,
2013-01-19 15:35:00,49.3,24.6,29.91,ESE,112,2.9,2.9,38,0.00,,,0.00,WUHU21623XXSP,2013-01-19 20:35:00,
2013-01-19 15:40:00,49.3,24.6,29.91,WSW,247,1.1,7.2,38,0.00,,,0.00,WUHU21623XXSP,2013-01-19 20:40:00,
2013-01-19 15:45:00,49.3,24.6,29.91,SSW,202,0.7,7.2,38,0.00,,,0.00,WUHU21623XXSP,2013-01-19 20:45:00,
2013-01-19 15:50:00,49.3,25.3,29.91,NE,45,1.6,1.6,39,0.00,,,0.00,WUHU21623XXSP,2013-01-19 20:50:00,
2013-01-19 15:55:00,49.1,25.3,29.90,WNW,292,3.8,3.8,39,0.00,,,0.00,WUHU21623XXSP,2013-01-19 20:55:00,
2013-01-19 16:00:00,49.1,25.1,29.90,SW,225,3.8,3.8,39,0.00,,,0.00,WUHU21623XXSP,2013-01-19 21:00:00,
2013-01-19 16:05:00,49.3,24.6,29.90,North,0,3.1,3.8,38,0.00,,,0.00,WUHU21623XXSP,2013-01-19 21:05:00,
2013-01-19 16:10:00,49.3,25.3,29.90,ENE,67,0.9,3.1,39,0.00,,,0.00,WUHU21623XXSP,2013-01-19 21:10:00,
2013-01-19 16:16:00,49.1,25.1,29.90,South,180,2.9,3.1,39,0.00,,,0.00,WUHU21623XXSP,2013-01-19 21:16:00,
2013-01-19 16:21:00,48.7,24.9,29.90,SE,135,0.0,2.9,39,0.00,,,0.00,WUHU21623XXSP,2013-01-19 21:21:00,
2013-01-19 16:26:00,48.6,24.6,29.89,NW,315,1.6,1.6,39,0.00,,,0.00,WUHU21623XXSP,2013-01-19 21:26:00,
2013-01-19 16:31:00,48.4,25.3,29.89,ENE,67,0.0,1.6,40,0.00,,,0.00,WUHU21623XXSP,2013-01-19 21:31:00,
2013-01-19 16:37:00,48.0,25.0,29.89,NW,315,0.0,0.0,40,0.00,,,0.00,WUHU21623XXSP,2013-01-19 21:37:00,
2013-01-19 16:42:00,48.0,24.8,29.89,ENE,67,0.0,1.3,40,0.00,,,0.00,WUHU21623XXSP,2013-01-19 21:42:00,
2013-01-19 16:47:00,47.8,24.8,29.88,South,180,1.6,1.6,40,0.00,,,0.00,WUHU21623XXSP,2013-01-19 21:47:00,
2013-01-19 16:52:00,47.5,24.9,29.88,WSW,247,1.1,1.6,41,0.00,,,0.00,WUHU21623XXSP,2013-01-19 21:52:00,
2013-01-19 16:57:00,47.3,24.7,29.88,South,180,0.0,1.6,41,0.00,,,0.00,WUHU21623XXSP,2013-01-19 21:57:00,
2013-01-19 17:02:00,47.1,24.5,29.88,SSE,157,3.8,3.8,41,0.00,,,0.00,WUHU21623XXSP,2013-01-19 22:02:00,
2013-01-19 17:08:00,47.1,24.5,29.87,ENE,67,1.6,3.8,41,0.00,,,0.00,WUHU21623XXSP,2013-01-19 22:08:00,
2013-01-19 17:13:00,46.9,24.4,29.87,SSE,157,0.7,2.0,42,0.00,,,0.00,WUHU21623XXSP,2013-01-19 22:13:00,
2013-01-19 17:18:00,46.8,24.2,29.87,North,0,0.0,1.6,41,0.00,,,0.00,WUHU21623XXSP,2013-01-19 22:18:00,
2013-01-19 17:23:00,46.8,24.2,29.87,ESE,112,0.0,1.8,41,0.00,,,0.00,WUHU21623XXSP,2013-01-19 22:23:00,
2013-01-19 17:28:00,46.6,24.6,29.87,NE,45,0.0,1.8,42,0.00,,,0.00,WUHU21623XXSP,2013-01-19 22:28:00,
2013-01-19 17:33:00,46.2,24.3,29.87,ENE,67,1.6,2.2,42,0.00,,,0.00,WUHU21623XXSP,2013-01-19 22:33:00,
2013-01-19 17:38:00,46.2,24.3,29.86,SW,225,2.5,2.5,42,0.00,,,0.00,WUHU21623XXSP,2013-01-19 22:38:00,
2013-01-19 17:43:00,46.0,24.1,29.86,South,180,2.5,2.5,42,0.00,,,0.00,WUHU21623XXSP,2013-01-19 22:43:00,
2013-01-19 17:48:00,45.7,23.8,29.87,SE,135,0.0,2.5,42,0.00,,,0.00,WUHU21623XXSP,2013-01-19 22:48:00,
2013-01-19 17:53:00,45.5,24.2,29.86,ENE,67,2.5,2.5,43,0.00,,,0.00,WUHU21623XXSP,2013-01-19 22:53:00,
2013-01-19 17:58:00,45.3,24.0,29.86,SSW,202,0.0,2.5,43,0.00,,,0.00,WUHU21623XXSP,2013-01-19 22:58:00,
2013-01-19 18:04:00,45.1,24.0,29.86,SSE,157,2.0,2.0,43,0.00,,,0.00,WUHU21623XXSP,2013-01-19 23:04:00,
2013-01-19 18:09:00,45.1,23.8,29.86,SSE,157,1.6,2.0,43,0.00,,,0.00,WUHU21623XXSP,2013-01-19 23:09:00,
2013-01-19 18:14:00,45.1,24.4,29.85,ENE,67,0.0,1.6,44,0.00,,,0.00,WUHU21623XXSP,2013-01-19 23:14:00,
2013-01-19 18:19:00,45.1,24.4,29.85,East,90,0.0,0.0,44,0.00,,,0.00,WUHU21623XXSP,2013-01-19 23:19:00,
2013-01-19 18:24:00,44.8,24.1,29.85,North,0,1.1,1.1,44,0.00,,,0.00,WUHU21623XXSP,2013-01-19 23:24:00,
2013-01-19 18:29:00,44.6,23.9,29.85,SE,135,0.0,3.8,44,0.00,,,0.00,WUHU21623XXSP,2013-01-19 23:29:00,
2013-01-19 18:34:00,44.8,24.1,29.85,NNW,337,0.0,3.8,44,0.00,,,0.00,WUHU21623XXSP,2013-01-19 23:34:00,
2013-01-19 18:39:00,44.4,24.3,29.85,SSE,157,0.0,0.0,45,0.00,,,0.00,WUHU21623XXSP,2013-01-19 23:39:00,
2013-01-19 18:44:00,44.4,24.3,29.85,SE,135,2.9,2.9,45,0.00,,,0.00,WUHU21623XXSP,2013-01-19 23:44:00,
2013-01-19 18:49:00,44.4,24.3,29.85,ENE,67,0.0,2.9,45,0.00,,,0.00,WUHU21623XXSP,2013-01-19 23:49:00,
2013-01-19 18:54:00,44.4,24.3,29.85,ENE,67,1.6,1.6,45,0.00,,,0.00,WUHU21623XXSP,2013-01-19 23:54:00,
2013-01-19 19:00:00,44.4,24.3,29.84,ENE,67,0.0,2.9,45,0.00,,,0.00,WUHU21623XXSP,2013-01-20 00:00:00,
2013-01-19 19:06:00,44.2,24.1,29.84,SSW,202,1.6,2.9,45,0.00,,,0.00,WUHU21623XXSP,2013-01-20 00:06:00,
2013-01-19 19:11:00,44.1,24.0,29.83,ENE,67,0.0,1.6,45,0.00,,,0.00,WUHU21623XXSP,2013-01-20 00:11:00,
2013-01-19 19:17:00,43.9,23.8,29.83,NE,45,1.3,1.3,45,0.00,,,0.00,WUHU21623XXSP,2013-01-20 00:17:00,
2013-01-19 19:22:00,44.1,24.0,29.84,ENE,67,4.7,4.7,45,0.00,,,0.00,WUHU21623XXSP,2013-01-20 00:22:00,
2013-01-19 19:27:00,44.2,24.1,29.83,NE,45,1.8,4.7,45,0.00,,,0.00,WUHU21623XXSP,2013-01-20 00:27:00,
2013-01-19 19:32:00,44.2,24.1,29.83,ESE,112,2.2,2.2,45,0.00,,,0.00,WUHU21623XXSP,2013-01-20 00:32:00,
2013-01-19 19:37:00,44.4,24.3,29.83,South,180,0.0,2.2,45,0.00,,,0.00,WUHU21623XXSP,2013-01-20 00:37:00,
2013-01-19 19:42:00,44.4,24.3,29.83,SSE,157,1.3,1.3,45,0.00,,,0.00,WUHU21623XXSP,2013-01-20 00:42:00,
2013-01-19 19:47:00,44.4,24.3,29.83,SSE,157,1.8,1.8,45,0.00,,,0.00,WUHU21623XXSP,2013-01-20 00:47:00,
2013-01-19 19:53:00,44.1,24.0,29.82,SE,135,0.7,1.8,45,0.00,,,0.00,WUHU21623XXSP,2013-01-20 00:53:00,
2013-01-19 19:58:00,43.9,23.8,29.82,NE,45,0.9,1.1,45,0.00,,,0.00,WUHU21623XXSP,2013-01-20 00:58:00,
2013-01-19 20:03:00,43.9,23.8,29.82,NNW,337,0.0,1.1,45,0.00,,,0.00,WUHU21623XXSP,2013-01-20 01:03:00,
2013-01-19 20:08:00,43.7,23.8,29.82,NE,45,0.0,1.8,45,0.00,,,0.00,WUHU21623XXSP,2013-01-20 01:08:00,
2013-01-19 20:13:00,43.9,23.8,29.81,NNW,337,0.0,3.8,45,0.00,,,0.00,WUHU21623XXSP,2013-01-20 01:13:00,
2013-01-19 20:18:00,43.7,24.2,29.81,ENE,67,1.1,3.8,46,0.00,,,0.00,WUHU21623XXSP,2013-01-20 01:18:00,
2013-01-19 20:23:00,43.9,23.8,29.80,NNW,337,0.0,3.1,45,0.00,,,0.00,WUHU21623XXSP,2013-01-20 01:23:00,
2013-01-19 20:28:00,43.9,24.3,29.80,SE,135,0.9,3.1,46,0.00,,,0.00,WUHU21623XXSP,2013-01-20 01:28:00,
2013-01-19 20:33:00,44.2,24.7,29.80,SSW,202,3.1,3.1,46,0.00,,,0.00,WUHU21623XXSP,2013-01-20 01:33:00,
2013-01-19 20:38:00,44.2,24.1,29.80,NE,45,0.9,3.1,45,0.00,,,0.00,WUHU21623XXSP,2013-01-20 01:38:00,
2013-01-19 20:43:00,44.4,24.3,29.80,SSW,202,0.0,1.6,45,0.00,,,0.00,WUHU21623XXSP,2013-01-20 01:43:00,
2013-01-19 20:48:00,44.4,24.8,29.80,NNW,337,1.3,1.3,46,0.00,,,0.00,WUHU21623XXSP,2013-01-20 01:48:00,
2013-01-19 20:54:00,44.4,24.3,29.80,ENE,67,0.7,1.3,45,0.00,,,0.00,WUHU21623XXSP,2013-01-20 01:54:00,
2013-01-19 20:59:00,44.4,24.3,29.80,ENE,67,0.0,0.7,45,0.00,,,0.00,WUHU21623XXSP,2013-01-20 01:59:00,
2013-01-19 21:04:00,44.6,24.4,29.80,South,180,1.8,2.5,45,0.00,,,0.00,WUHU21623XXSP,2013-01-20 02:04:00,
2013-01-19 21:09:00,44.8,24.6,29.80,SE,135,0.0,2.5,45,0.00,,,0.00,WUHU21623XXSP,2013-01-20 02:09:00,
2013-01-19 21:14:00,44.8,24.6,29.80,SE,135,2.5,2.5,45,0.00,,,0.00,WUHU21623XXSP,2013-01-20 02:14:00,
2013-01-19 21:20:00,45.0,24.8,29.80,East,90,1.1,2.5,45,0.00,,,0.00,WUHU21623XXSP,2013-01-20 02:20:00,
2013-01-19 21:25:00,45.0,24.8,29.80,NE,45,0.7,1.6,45,0.00,,,0.00,WUHU21623XXSP,2013-01-20 02:25:00,
2013-01-19 21:30:00,45.0,24.8,29.80,NE,45,0.9,0.9,45,0.00,,,0.00,WUHU21623XXSP,2013-01-20 02:30:00,
2013-01-19 21:35:00,45.0,24.8,29.80,SE,135,0.0,2.5,45,0.00,,,0.00,WUHU21623XXSP,2013-01-20 02:35:00,
2013-01-19 21:40:00,45.0,24.8,29.79,SW,225,4.9,4.9,45,0.00,,,0.00,WUHU21623XXSP,2013-01-20 02:40:00,
2013-01-19 21:45:00,45.0,24.8,29.79,NNE,22,0.0,4.9,45,0.00,,,0.00,WUHU21623XXSP,2013-01-20 02:45:00,
2013-01-19 21:50:00,45.1,24.9,29.78,ENE,67,1.1,2.5,45,0.00,,,0.00,WUHU21623XXSP,2013-01-20 02:50:00,
2013-01-19 21:55:00,45.1,24.9,29.78,WSW,247,3.6,3.6,45,0.00,,,0.00,WUHU21623XXSP,2013-01-20 02:55:00,
2013-01-19 22:00:00,45.1,24.9,29.78,SSE,157,1.1,3.6,45,0.00,,,0.00,WUHU21623XXSP,2013-01-20 03:00:00,
2013-01-19 22:05:00,45.1,24.9,29.78,ENE,67,3.4,3.4,45,0.00,,,0.00,WUHU21623XXSP,2013-01-20 03:05:00,
2013-01-19 22:10:00,45.1,24.9,29.78,SE,135,4.7,4.7,45,0.00,,,0.00,WUHU21623XXSP,2013-01-20 03:10:00,
2013-01-19 22:15:00,45.1,24.9,29.78,SSE,157,1.3,4.7,45,0.00,,,0.00,WUHU21623XXSP,2013-01-20 03:15:00,
2013-01-19 22:20:00,45.0,24.8,29.78,WNW,292,1.6,1.6,45,0.00,,,0.00,WUHU21623XXSP,2013-01-20 03:20:00,
2013-01-19 22:26:00,45.0,24.8,29.78,East,90,1.6,1.6,45,0.00,,,0.00,WUHU21623XXSP,2013-01-20 03:26:00,
2013-01-19 22:31:00,45.0,24.8,29.78,NE,45,0.0,2.0,45,0.00,,,0.00,WUHU21623XXSP,2013-01-20 03:31:00,
2013-01-19 22:36:00,45.0,24.8,29.78,NNE,22,1.3,1.3,45,0.00,,,0.00,WUHU21623XXSP,2013-01-20 03:36:00,
2013-01-19 22:42:00,45.1,24.9,29.78,NNW,337,6.9,6.9,45,0.00,,,0.00,WUHU21623XXSP,2013-01-20 03:42:00,
2013-01-19 22:47:00,45.3,25.1,29.78,SE,135,1.6,6.9,45,0.00,,,0.00,WUHU21623XXSP,2013-01-20 03:47:00,
2013-01-19 22:52:00,45.3,25.1,29.78,ENE,67,0.0,1.6,45,0.00,,,0.00,WUHU21623XXSP,2013-01-20 03:52:00,
2013-01-19 22:57:00,45.3,25.1,29.78,North,0,3.1,3.1,45,0.00,,,0.00,WUHU21623XXSP,2013-01-20 03:57:00,
2013-01-19 23:02:00,45.5,25.3,29.77,ENE,67,0.0,4.3,45,0.00,,,0.00,WUHU21623XXSP,2013-01-20 04:02:00,
2013-01-19 23:07:00,45.3,25.1,29.77,NW,315,1.6,4.3,45,0.00,,,0.00,WUHU21623XXSP,2013-01-20 04:07:00,
2013-01-19 23:13:00,45.3,25.1,29.77,SSW,202,5.1,5.1,45,0.00,,,0.00,WUHU21623XXSP,2013-01-20 04:13:00,
2013-01-19 23:18:00,45.3,25.1,29.78,NE,45,0.0,5.1,45,0.00,,,0.00,WUHU21623XXSP,2013-01-20 04:18:00,
2013-01-19 23:23:00,45.3,25.1,29.78,North,0,1.6,1.6,45,0.00,,,0.00,WUHU21623XXSP,2013-01-20 04:23:00,
2013-01-19 23:28:00,45.3,25.6,29.77,NE,45,1.1,6.0,46,0.00,,,0.00,WUHU21623XXSP,2013-01-20 04:28:00,
2013-01-19 23:33:00,45.1,25.5,29.77,NE,45,1.1,6.0,46,0.00,,,0.00,WUHU21623XXSP,2013-01-20 04:33:00,
2013-01-19 23:38:00,45.1,25.5,29.77,NW,315,3.8,3.8,46,0.00,,,0.00,WUHU21623XXSP,2013-01-20 04:38:00,
2013-01-19 23:43:00,45.0,25.3,29.76,ENE,67,1.1,3.8,46,0.00,,,0.00,WUHU21623XXSP,2013-01-20 04:43:00,
2013-01-19 23:48:00,45.0,25.8,29.76,WSW,247,0.0,1.3,47,0.00,,,0.00,WUHU21623XXSP,2013-01-20 04:48:00,
2013-01-19 23:54:00,44.6,25.5,29.76,ENE,67,3.8,3.8,47,0.00,,,0.00,WUHU21623XXSP,2013-01-20 04:54:00,
2013-01-19 23:59:00,44.4,25.4,29.76,West,270,0.0,3.8,47,0.00,,,0.00,WUHU21623XXSP,2013-01-20 04:59:00,